| time (UTC) | temp F | wind direction | speed MPH | gust MPH | rain 1hr in | rain 24hr in | rain mn in | humidity % | barometer mb |
| 20260503201909 | 44 | 75 | 6.0 | 12.0 | 0.00 | 0.07 | 0.07 | 81 | 1004.1 |
| 20260503200909 | 45 | 69 | 4.0 | 10.0 | 0.00 | 0.07 | 0.07 | 82 | 1004.2 |
| 20260503200405 | 45 | 60 | 5.0 | 12.0 | 0.00 | 0.07 | 0.07 | 81 | 1004.3 |
| 20260503195906 | 45 | 57 | 6.0 | 8.0 | 0.00 | 0.07 | 0.07 | 80 | 1004.2 |
| 20260503195407 | 45 | 82 | 5.0 | 9.0 | 0.00 | 0.07 | 0.07 | 79 | 1004.3 |
| 20260503194905 | 46 | 54 | 4.0 | 8.0 | 0.00 | 0.07 | 0.07 | 80 | 1004.4 |
| 20260503193905 | 45 | 95 | 5.0 | 9.0 | 0.00 | 0.07 | 0.07 | 80 | 1004.6 |
| 20260503192906 | 46 | 71 | 5.0 | 12.0 | 0.00 | 0.07 | 0.07 | 80 | 1004.8 |
| 20260503191905 | 46 | 62 | 4.0 | 8.0 | 0.00 | 0.07 | 0.07 | 79 | 1004.9 |
| 20260503191405 | 46 | 64 | 4.0 | 8.0 | 0.00 | 0.07 | 0.07 | 79 | 1005.1 |
| 20260503190906 | 47 | 62 | 5.0 | 9.0 | 0.00 | 0.07 | 0.07 | 80 | 1005.1 |
| 20260503190405 | 47 | 77 | 5.0 | 9.0 | 0.00 | 0.07 | 0.07 | 81 | 1005.2 |
| 20260503185906 | 46 | 61 | 5.0 | 7.0 | 0.00 | 0.07 | 0.07 | 82 | 1005.3 |
| 20260503185405 | 46 | 65 | 5.0 | 9.0 | 0.00 | 0.07 | 0.07 | 83 | 1005.3 |
| 20260503184908 | 45 | 67 | 5.0 | 9.0 | 0.00 | 0.07 | 0.07 | 85 | 1005.3 |
| 20260503184405 | 45 | 50 | 5.0 | 8.0 | 0.00 | 0.07 | 0.07 | 83 | 1005.4 |
| 20260503183906 | 45 | 64 | 5.0 | 8.0 | 0.00 | 0.07 | 0.07 | 82 | 1005.4 |
| 20260503183406 | 46 | 63 | 5.0 | 9.0 | 0.00 | 0.07 | 0.07 | 81 | 1005.4 |
| 20260503182904 | 46 | 53 | 4.0 | 7.0 | 0.00 | 0.07 | 0.07 | 83 | 1005.5 |
| 20260503182405 | 46 | 60 | 3.0 | 5.0 | 0.00 | 0.07 | 0.07 | 84 | 1005.6 |
| 20260503181906 | 46 | 54 | 3.0 | 6.0 | 0.00 | 0.07 | 0.07 | 84 | 1005.7 |
| 20260503181405 | 45 | 53 | 3.0 | 7.0 | 0.00 | 0.07 | 0.07 | 85 | 1005.7 |
| 20260503180906 | 45 | 65 | 4.0 | 9.0 | 0.00 | 0.07 | 0.07 | 84 | 1005.8 |
| 20260503175906 | 46 | 73 | 5.0 | 10.0 | 0.01 | 0.07 | 0.07 | 82 | 1005.8 |
| 20260503175405 | 47 | 65 | 5.0 | 9.0 | 0.01 | 0.07 | 0.07 | 85 | 1005.8 |
| 20260503174908 | 47 | 34 | 5.0 | 7.0 | 0.01 | 0.07 | 0.07 | 88 | 1005.8 |
| 20260503173906 | 47 | 62 | 3.0 | 9.0 | 0.01 | 0.07 | 0.07 | 89 | 1006.0 |
| 20260503173408 | 47 | 129 | 3.0 | 6.0 | 0.01 | 0.07 | 0.07 | 93 | 1006.2 |
| 20260503172904 | 46 | 59 | 2.0 | 6.0 | 0.01 | 0.07 | 0.07 | 95 | 1006.2 |
| 20260503172405 | 45 | 157 | 3.0 | 5.0 | 0.01 | 0.07 | 0.07 | 95 | 1006.2 |
| 20260503171905 | 44 | 159 | 2.0 | 5.0 | 0.01 | 0.07 | 0.07 | 95 | 1006.3 |
| 20260503170905 | 42 | 101 | 3.0 | 6.0 | 0.01 | 0.07 | 0.07 | 94 | 1006.4 |
| 20260503150906 | 38 | 147 | 1.0 | 3.0 | 0.01 | 0.04 | 0.04 | 91 | 1007.7 |
| 20260503150405 | 38 | 162 | 1.0 | 3.0 | 0.01 | 0.04 | 0.04 | 91 | 1007.7 |
| 20260503130906 | 40 | 102 | 2.0 | 3.0 | 0.00 | 0.00 | 0.00 | 78 | 1008.0 |
| 20260503130405 | 40 | 109 | 1.0 | 3.0 | 0.00 | 0.00 | 0.00 | 74 | 1008.1 |
| 20260503110404 | 37 | 167 | 2.0 | 3.0 | 0.00 | 0.00 | 0.00 | 68 | 1008.6 |
| 20260503081406 | 31 | 171 | 2.0 | 3.0 | 0.00 | 0.00 | 0.00 | 81 | 1010.7 |
| 20260503080404 | 31 | 161 | 2.0 | 3.0 | 0.00 | 0.00 | 0.00 | 81 | 1010.9 |
| 20260503072905 | 30 | 166 | 2.0 | 5.0 | 0.00 | 0.00 | 0.00 | 82 | 1011.3 |
| 20260503072405 | 30 | 172 | 2.0 | 5.0 | 0.00 | 0.00 | 0.00 | 82 | 1011.4 |
| 20260503071904 | 30 | 180 | 2.0 | 3.0 | 0.00 | 0.00 | 0.00 | 82 | 1011.4 |
| 20260503070905 | 30 | 177 | 3.0 | 3.0 | 0.00 | 0.00 | 0.00 | 81 | 1011.6 |
| 20260503054905 | 31 | 174 | 1.0 | 3.0 | 0.00 | 0.00 | 0.00 | 79 | 1012.6 |
| 20260503054405 | 31 | 169 | 1.0 | 3.0 | 0.00 | 0.00 | 0.00 | 79 | 1012.6 |
| 20260503053904 | 31 | 162 | 1.0 | 3.0 | 0.00 | 0.00 | 0.00 | 79 | 1012.6 |
| 20260503052905 | 31 | 149 | 1.0 | 3.0 | 0.00 | 0.00 | 0.00 | 79 | 1012.7 |
| 20260503052405 | 31 | 155 | 1.0 | 3.0 | 0.00 | 0.00 | 0.00 | 78 | 1012.7 |
| 20260503051905 | 31 | 147 | 1.0 | 3.0 | 0.00 | 0.00 | 0.00 | 78 | 1012.7 |
| 20260503051405 | 31 | 167 | 2.0 | 3.0 | 0.00 | 0.00 | 0.00 | 78 | 1012.7 |
| 20260503050905 | 31 | 163 | 2.0 | 3.0 | 0.00 | 0.00 | 0.00 | 78 | 1012.7 |
| 20260503050404 | 31 | 171 | 2.0 | 5.0 | 0.00 | 0.00 | 0.00 | 77 | 1012.8 |
| 20260503045913 | 31 | 185 | 2.0 | 3.0 | 0.00 | 0.00 | 0.00 | 77 | 1012.9 |
| 20260503045413 | 31 | 169 | 2.0 | 3.0 | 0.00 | 0.00 | 0.00 | 77 | 1012.9 |
| 20260503044912 | 31 | 173 | 2.0 | 3.0 | 0.00 | 0.00 | 0.00 | 77 | 1012.9 |
| 20260503044412 | 31 | 178 | 2.0 | 5.0 | 0.00 | 0.00 | 0.00 | 78 | 1013.0 |
| 20260503043913 | 31 | 184 | 2.0 | 3.0 | 0.00 | 0.00 | 0.00 | 77 | 1013.0 |
| 20260503043414 | 31 | 172 | 2.0 | 3.0 | 0.00 | 0.00 | 0.00 | 77 | 1013.1 |
| 20260503042914 | 31 | 172 | 1.0 | 3.0 | 0.00 | 0.00 | 0.00 | 77 | 1013.2 |
| 20260503041914 | 31 | 162 | 2.0 | 3.0 | 0.00 | 0.00 | 0.00 | 77 | 1013.2 |
| 20260503040912 | 32 | 171 | 1.0 | 3.0 | 0.00 | 0.00 | 0.00 | 78 | 1013.3 |
| 20260503040413 | 32 | 166 | 1.0 | 3.0 | 0.00 | 0.00 | 0.00 | 77 | 1013.4 |
| 20260503035413 | 32 | 157 | 2.0 | 3.0 | 0.00 | 0.00 | 0.00 | 77 | 1013.5 |
| 20260503034912 | 32 | 166 | 2.0 | 3.0 | 0.00 | 0.00 | 0.00 | 77 | 1013.5 |
| 20260503034414 | 32 | 170 | 2.0 | 3.0 | 0.00 | 0.00 | 0.00 | 77 | 1013.6 |
| 20260503033913 | 32 | 157 | 1.0 | 3.0 | 0.00 | 0.00 | 0.00 | 77 | 1013.7 |
| 20260503033413 | 33 | 160 | 2.0 | 3.0 | 0.00 | 0.00 | 0.00 | 76 | 1013.8 |
| 20260503032414 | 33 | 165 | 2.0 | 3.0 | 0.00 | 0.00 | 0.00 | 77 | 1013.8 |
| 20260503031413 | 34 | 167 | 2.0 | 3.0 | 0.00 | 0.00 | 0.00 | 77 | 1013.9 |
| 20260503030914 | 34 | 170 | 2.0 | 3.0 | 0.00 | 0.00 | 0.00 | 77 | 1014.0 |
| 20260503030412 | 34 | 174 | 2.0 | 3.0 | 0.00 | 0.00 | 0.00 | 77 | 1014.1 |
| 20260503025913 | 34 | 173 | 2.0 | 3.0 | 0.00 | 0.00 | 0.00 | 78 | 1014.1 |
| 20260503025413 | 35 | 166 | 1.0 | 2.0 | 0.00 | 0.00 | 0.00 | 77 | 1014.2 |
| 20260503024913 | 35 | 169 | 1.0 | 2.0 | 0.00 | 0.00 | 0.00 | 77 | 1014.2 |
| 20260503023913 | 35 | 169 | 1.0 | 2.0 | 0.00 | 0.00 | 0.00 | 76 | 1014.2 |
| 20260503023413 | 36 | 169 | 1.0 | 2.0 | 0.00 | 0.00 | 0.00 | 76 | 1014.3 |
| 20260503022914 | 36 | 148 | 1.0 | 2.0 | 0.00 | 0.00 | 0.00 | 76 | 1014.2 |
| 20260503022413 | 36 | 149 | 2.0 | 2.0 | 0.00 | 0.00 | 0.00 | 78 | 1014.2 |
| 20260503021913 | 37 | 163 | 1.0 | 2.0 | 0.00 | 0.00 | 0.00 | 78 | 1014.2 |
| 20260503020914 | 37 | 163 | 1.0 | 2.0 | 0.00 | 0.00 | 0.00 | 78 | 1014.2 |
| 20260503020412 | 37 | 87 | 1.0 | 2.0 | 0.00 | 0.00 | 0.00 | 78 | 1014.1 |
| 20260503015413 | 38 | 160 | 1.0 | 2.0 | 0.00 | 0.00 | 0.00 | 77 | 1014.1 |
| 20260503014913 | 38 | 154 | 1.0 | 3.0 | 0.00 | 0.00 | 0.00 | 77 | 1014.1 |
| 20260503014413 | 38 | 164 | 1.0 | 2.0 | 0.00 | 0.00 | 0.00 | 76 | 1014.0 |
| 20260503012914 | 39 | 177 | 1.0 | 2.0 | 0.00 | 0.00 | 0.00 | 74 | 1014.0 |
| 20260503012414 | 40 | 153 | 1.0 | 2.0 | 0.00 | 0.00 | 0.00 | 74 | 1014.0 |
| 20260503011413 | 41 | 175 | 2.0 | 3.0 | 0.00 | 0.00 | 0.00 | 73 | 1013.9 |
| 20260503010412 | 41 | 139 | 1.0 | 2.0 | 0.00 | 0.00 | 0.00 | 70 | 1013.9 |
| 20260503005413 | 42 | 70 | 2.0 | 3.0 | 0.00 | 0.00 | 0.00 | 63 | 1013.7 |
| 20260503004914 | 43 | 56 | 1.0 | 2.0 | 0.00 | 0.00 | 0.00 | 63 | 1013.7 |
| 20260503004413 | 43 | 145 | 2.0 | 3.0 | 0.00 | 0.00 | 0.00 | 62 | 1013.7 |
| 20260503003914 | 44 | 153 | 1.0 | 2.0 | 0.00 | 0.00 | 0.00 | 62 | 1013.7 |
| 20260503003413 | 44 | 159 | 0.0 | 2.0 | 0.00 | 0.00 | 0.00 | 61 | 1013.6 |
| 20260503002914 | 44 | 251 | 1.0 | 3.0 | 0.00 | 0.00 | 0.00 | 60 | 1013.6 |
| 20260503002414 | 44 | 1 | 1.0 | 3.0 | 0.00 | 0.00 | 0.00 | 60 | 1013.6 |
| 20260503001913 | 44 | 338 | 1.0 | 2.0 | 0.00 | 0.00 | 0.00 | 59 | 1013.6 |
| 20260503000412 | 45 | 309 | 2.0 | 3.0 | 0.00 | 0.00 | 0.00 | 61 | 1013.6 |
| 20260502235912 | 45 | 28 | 1.0 | 3.0 | 0.00 | 0.00 | 0.00 | 61 | 1013.7 |
| 20260502235412 | 45 | 283 | 1.0 | 3.0 | 0.00 | 0.00 | 0.00 | 59 | 1013.7 |
| 20260502234914 | 45 | 331 | 1.0 | 3.0 | 0.00 | 0.00 | 0.00 | 57 | 1013.7 |
| 20260502233913 | 45 | 170 | 1.0 | 3.0 | 0.00 | 0.00 | 0.00 | 56 | 1013.7 |
| 20260502233413 | 45 | 324 | 1.0 | 3.0 | 0.00 | 0.00 | 0.00 | 59 | 1013.8 |
| 20260502232914 | 45 | 331 | 1.0 | 3.0 | 0.00 | 0.00 | 0.00 | 59 | 1013.8 |
| 20260502232413 | 46 | 320 | 1.0 | 3.0 | 0.00 | 0.00 | 0.00 | 63 | 1013.9 |
| 20260502231914 | 46 | 265 | 1.0 | 3.0 | 0.00 | 0.00 | 0.00 | 63 | 1013.9 |
| 20260502231414 | 46 | 17 | 2.0 | 3.0 | 0.00 | 0.00 | 0.00 | 61 | 1014.0 |
| 20260502230913 | 46 | 353 | 1.0 | 3.0 | 0.00 | 0.00 | 0.00 | 64 | 1014.0 |
| 20260502225912 | 46 | 49 | 1.0 | 2.0 | 0.00 | 0.00 | 0.00 | 62 | 1014.0 |
| 20260502225415 | 46 | 276 | 2.0 | 3.0 | 0.00 | 0.00 | 0.00 | 62 | 1014.1 |
| 20260502224913 | 47 | 4 | 1.0 | 3.0 | 0.00 | 0.00 | 0.00 | 58 | 1014.2 |
| 20260502224413 | 47 | 270 | 1.0 | 3.0 | 0.00 | 0.00 | 0.00 | 59 | 1014.2 |
| 20260502223913 | 47 | 25 | 2.0 | 3.0 | 0.00 | 0.00 | 0.00 | 59 | 1014.2 |
| 20260502223413 | 47 | 351 | 1.0 | 3.0 | 0.00 | 0.00 | 0.00 | 60 | 1014.3 |
| 20260502222913 | 47 | 352 | 2.0 | 3.0 | 0.00 | 0.00 | 0.00 | 60 | 1014.3 |
| 20260502222414 | 47 | 24 | 2.0 | 5.0 | 0.00 | 0.00 | 0.00 | 61 | 1014.3 |
| 20260502221413 | 47 | 351 | 2.0 | 3.0 | 0.00 | 0.00 | 0.00 | 58 | 1014.3 |
| 20260502220912 | 47 | 13 | 2.0 | 3.0 | 0.00 | 0.00 | 0.00 | 57 | 1014.3 |
| 20260502220413 | 47 | 1 | 2.0 | 3.0 | 0.00 | 0.00 | 0.00 | 57 | 1014.4 |
| 20260502215413 | 48 | 1 | 2.0 | 3.0 | 0.00 | 0.00 | 0.00 | 56 | 1014.4 |
| 20260502214913 | 48 | 297 | 2.0 | 5.0 | 0.00 | 0.00 | 0.00 | 54 | 1014.4 |
| 20260502214413 | 48 | 6 | 2.0 | 6.0 | 0.00 | 0.00 | 0.00 | 56 | 1014.5 |
| 20260502213913 | 48 | 358 | 2.0 | 5.0 | 0.00 | 0.00 | 0.00 | 54 | 1014.4 |
| 20260502213413 | 48 | 8 | 2.0 | 3.0 | 0.00 | 0.00 | 0.00 | 56 | 1014.5 |
| 20260502212913 | 48 | 27 | 3.0 | 3.0 | 0.00 | 0.00 | 0.00 | 56 | 1014.5 |
| 20260502212413 | 48 | 22 | 3.0 | 5.0 | 0.00 | 0.00 | 0.00 | 55 | 1014.5 |
| 20260502211913 | 49 | 7 | 2.0 | 6.0 | 0.00 | 0.00 | 0.00 | 53 | 1014.6 |
| 20260502210412 | 50 | 17 | 2.0 | 5.0 | 0.00 | 0.00 | 0.00 | 53 | 1014.6 |
| 20260502205413 | 51 | 4 | 2.0 | 8.0 | 0.00 | 0.00 | 0.00 | 53 | 1014.7 |
| 20260502204912 | 50 | 288 | 3.0 | 8.0 | 0.00 | 0.00 | 0.00 | 53 | 1014.8 |
| 20260502204413 | 50 | 35 | 2.0 | 3.0 | 0.00 | 0.00 | 0.00 | 53 | 1014.8 |
| 20260502203913 | 51 | 15 | 2.0 | 3.0 | 0.00 | 0.00 | 0.00 | 53 | 1014.8 |
| 20260502203412 | 51 | 20 | 3.0 | 6.0 | 0.00 | 0.00 | 0.00 | 54 | 1014.8 |
| 20260502202913 | 51 | 9 | 2.0 | 5.0 | 0.00 | 0.00 | 0.00 | 51 | 1014.8 |
| 20260502202413 | 51 | 298 | 3.0 | 6.0 | 0.00 | 0.00 | 0.00 | 49 | 1014.9 |